Weather Roundup
Issued by NWS Chicago, IL

Home | Current Version | Previous Version | Text Only | Print | Product List | Glossary On
Versions: 1 2 3 4 5 6 7 8 9 10 11 12 13 14 15 16 17 18 19 20 21 22 23 24 25 26 27 28 29 30 31 32 33 34 35 36 37 38 39 40 41 42 43 44 45 46 47 48 49 50
000
NZUS59 KLOT 250508
HRRLOT

CHICAGO AREA WEATHER ROUNDUP
NATIONAL WEATHER SERVICE CHICAGO/ROMEOVILLE IL
1200 AM CDT SAT MAR 25 2017

NOTE: "FAIR" INDICATES FEW OR NO CLOUDS BELOW 12,000 FEET WITH NO
SIGNIFICANT WEATHER AND/OR OBSTRUCTIONS TO VISIBILITY.

* THESE STATIONS ARE NOT UNDER NWS QUALITY CONTROL. THEY ALSO MAY NOT
  REPORT WEATHER SUCH AS PRECIPITATION OR FOG.

ILZ005-006-012>014-019>023-250600-
NORTHEAST ILLINOIS

CITY           SKY/WX    TMP DP  RH WIND       PRES   REMARKS
OHARE          CLOUDY    43  36  76 NE14      30.04F
MIDWAY         CLOUDY    42  38  85 NE9G23    30.05F
AURORA         MOCLDY    44  37  76 NE10      30.03F
LANSING*       CLOUDY    39  38  97 N8        30.07S
JOLIET*        CLOUDY    44  40  88 NE10      30.04S
WAUKEGAN       CLOUDY    38  36  92 N10G24    30.07R
DUPAGE AIRPORT MOCLDY    43  39  86 N12       30.04F
WHEELING       CLOUDY    40  38  93 N12       30.07F
KANKAKEE*      CLOUDY    47  41  78 N7        30.04R
MORRIS*        MOCLDY    43  39  86 NE6       30.03R
LEWIS AIRPORT* CLOUDY    41  40  96 E12       30.04R
NORTHERLY ISL    N/A     38  36  92 N15         N/A
$$

WIZ051-052-058>065-066-070>072-250600-
SOUTHEAST WISCONSIN

CITY           SKY/WX    TMP DP  RH WIND       PRES   REMARKS
MILWAUKEE      LGT RAIN  38  34  85 N15G25    30.10F
KENOSHA*       CLOUDY    38  35  89 N17G24    30.08F
RACINE*        CLOUDY    37  34  89 N18G28    30.11F
WAUKESHA       CLOUDY    36  32  87 NE12G21   30.12S
WEST BEND      CLOUDY    36  34  93 NE13G20   30.14F
$$

INZ001>003-010>013-019-020-250600-
NORTHWEST INDIANA

CITY           SKY/WX    TMP DP  RH WIND       PRES   REMARKS
GARY*          CLOUDY    40  38  91 N15       30.08S
MICHIGAN CITY* NOT AVBL
RENSSELAER*    NOT AVBL
VALPARAISO     CLOUDY    43  40  89 NW9       30.05R FOG
$$

LMZ740>746-250600-
SOUTHERN LAKE MICHIGAN

STATION/POSITION TIME  SKY/WX   TEMP WIND        PRES    VSBY
                                AIR  DIR/SP/G
                 (UTC)          (F)  (DEG/KT/KT) (MB)    (MI)
HARRISON CRIB    0440                350/ 17/ 19   N/A
BURNHAM HARBOR   0500                350/ 17/ 19   N/A
CALUMET HARBOR   0442                340/ 12/ 19 1017.5F
BURNS HARBOR     0440            38  330/  7/  9 1018.6R
MICHIGAN CITY    0440            38  280/ 10/ 11   N/A
$$

ABBREVIATIONS USED IN REMARKS
   TC - TEMPERATURE IN CELSIUS
  WCI - WIND CHILL INDEX
   HX - HEAT INDEX
  VSB - VISIBILITY
$$




USA.gov is the U.S. government's official web portal to all federal, state and local government web resources and services.